AFL1700 UUEE-UHWW

Flight info

Callsign AFL1700
Flight time 7h 58m
Altitude 35000
Route RILPO3J RILPO T753 TUNOB T791 MOVUN P149 SONIB N174 KEDOR T541 LEBNA L168 GIMAR/K0898F370 L168 IVADA DCT HAB/K0904F380 DCT ARDEL B355 BG/K0826F220 G714 DAGES DAGES2M
Aircraft B77W/H-SDE1E2E3FGHIJ2J3J4J5M1RWXY/LB1D1

Departure

Time 2026-04-25 05:16
Airport Sheremetyevo International Airport (UUEE)

Arrival

Time 2026-04-25 13:14
Airport Vladivostok International Airport (UHWW)
Time Latitude Longitude Altitude Speed Heading
2026-04-25 04:10 55.97743 37.40988 644 ft 0 kts 75°
2026-04-25 04:55 55.97740 37.40970 643 ft 2 kts 82°
2026-04-25 04:55 55.97742 37.40945 643 ft 2 kts 112°
2026-04-25 04:56 55.97749 37.40922 643 ft 2 kts 134°
2026-04-25 04:56 55.97761 37.40906 643 ft 2 kts 155°
2026-04-25 04:56 55.97775 37.40898 643 ft 2 kts 168°
2026-04-25 04:56 55.97790 37.40893 643 ft 2 kts 166°
2026-04-25 04:57 55.97799 37.40889 643 ft 0 kts 165°
2026-04-25 05:03 55.97798 37.40889 643 ft 0 kts 165°
2026-04-25 05:04 55.97797 37.40889 643 ft 0 kts 165°
2026-04-25 05:04 55.97784 37.40897 643 ft 4 kts 163°
2026-04-25 05:04 55.97736 37.40920 643 ft 10 kts 165°
2026-04-25 05:05 55.97665 37.40967 643 ft 10 kts 137°
2026-04-25 05:05 55.97638 37.41066 643 ft 8 kts 116°
2026-04-25 05:05 55.97596 37.41133 643 ft 8 kts 156°
2026-04-25 05:05 55.97554 37.41204 643 ft 9 kts 108°
2026-04-25 05:06 55.97559 37.41338 643 ft 11 kts 76°
2026-04-25 05:06 55.97577 37.41458 643 ft 9 kts 74°
2026-04-25 05:06 55.97592 37.41565 643 ft 8 kts 77°
2026-04-25 05:06 55.97606 37.41661 643 ft 7 kts 75°
2026-04-25 05:07 55.97618 37.41745 643 ft 6 kts 75°
2026-04-25 05:07 55.97630 37.41826 643 ft 6 kts 75°
2026-04-25 05:07 55.97642 37.41906 643 ft 6 kts 75°
2026-04-25 05:07 55.97654 37.41985 643 ft 6 kts 75°
2026-04-25 05:08 55.97665 37.42062 643 ft 6 kts 73°
2026-04-25 05:08 55.97678 37.42137 643 ft 6 kts 73°
2026-04-25 05:08 55.97691 37.42222 643 ft 7 kts 74°
2026-04-25 05:08 55.97707 37.42326 643 ft 9 kts 74°
2026-04-25 05:09 55.97725 37.42445 643 ft 10 kts 75°
2026-04-25 05:09 55.97745 37.42578 643 ft 11 kts 75°
2026-04-25 05:09 55.97766 37.42720 643 ft 11 kts 75°
2026-04-25 05:09 55.97787 37.42860 643 ft 11 kts 75°
2026-04-25 05:10 55.97808 37.43002 643 ft 11 kts 75°
2026-04-25 05:10 55.97829 37.43142 643 ft 11 kts 76°
2026-04-25 05:10 55.97849 37.43282 643 ft 11 kts 75°
2026-04-25 05:10 55.97870 37.43423 643 ft 11 kts 75°
2026-04-25 05:11 55.97892 37.43561 643 ft 11 kts 74°
2026-04-25 05:11 55.97913 37.43700 643 ft 11 kts 75°
2026-04-25 05:11 55.97934 37.43841 643 ft 11 kts 75°
2026-04-25 05:12 55.97920 37.44013 643 ft 6 kts 140°
2026-04-25 05:12 55.97870 37.44053 643 ft 9 kts 160°
2026-04-25 05:12 55.97808 37.44087 643 ft 9 kts 164°
2026-04-25 05:12 55.97758 37.44111 643 ft 4 kts 167°
2026-04-25 05:13 55.97724 37.44125 643 ft 5 kts 166°
2026-04-25 05:13 55.97686 37.44142 643 ft 5 kts 165°
2026-04-25 05:13 55.97644 37.44162 643 ft 6 kts 164°
2026-04-25 05:13 55.97598 37.44179 643 ft 7 kts 178°
2026-04-25 05:14 55.97551 37.44149 643 ft 7 kts 217°
2026-04-25 05:14 55.97530 37.44087 643 ft 0 kts 254°
2026-04-25 05:15 55.97472 37.43707 643 ft 75 kts 255°
2026-04-25 05:15 55.97261 37.42291 643 ft 159 kts 255°
2026-04-25 05:15 55.96927 37.40100 1090 ft 196 kts 254°
2026-04-25 05:16 55.96558 37.37648 2007 ft 215 kts 254°
2026-04-25 05:16 55.95958 37.35395 3419 ft 207 kts 237°
2026-04-25 05:16 55.95145 37.33271 3996 ft 217 kts 235°
2026-04-25 05:16 55.94248 37.30990 4432 ft 233 kts 234°
2026-04-25 05:17 55.93287 37.28552 4919 ft 248 kts 234°
2026-04-25 05:17 55.92282 37.26005 5608 ft 255 kts 234°
2026-04-25 05:17 55.91252 37.23446 6354 ft 261 kts 229°
2026-04-25 05:17 55.89840 37.21447 6891 ft 266 kts 204°
2026-04-25 05:18 55.88047 37.20715 6984 ft 266 kts 177°
2026-04-25 05:18 55.86268 37.21515 6992 ft 265 kts 150°
2026-04-25 05:18 55.84847 37.23595 6996 ft 265 kts 127°
2026-04-25 05:18 55.84069 37.26513 6995 ft 265 kts 99°
2026-04-25 05:19 55.84140 37.29823 7073 ft 279 kts 70°
2026-04-25 05:19 55.85110 37.32777 7903 ft 280 kts 51°
2026-04-25 05:19 55.86336 37.35405 8705 ft 283 kts 49°
2026-04-25 05:19 55.87613 37.38103 8979 ft 286 kts 50°
2026-04-25 05:20 55.88877 37.40819 9003 ft 285 kts 50°
2026-04-25 05:20 55.90131 37.43539 9006 ft 284 kts 50°
2026-04-25 05:20 55.91388 37.46275 9006 ft 284 kts 50°
2026-04-25 05:20 55.92635 37.48995 9006 ft 284 kts 50°
2026-04-25 05:21 55.93887 37.51701 9001 ft 284 kts 47°
2026-04-25 05:21 55.95290 37.54214 9212 ft 296 kts 43°
2026-04-25 05:21 55.96798 37.56731 9907 ft 297 kts 43°
2026-04-25 05:21 55.98281 37.59210 9996 ft 292 kts 43°
2026-04-25 05:22 55.99757 37.61688 10004 ft 289 kts 43°
2026-04-25 05:22 56.01212 37.64137 10006 ft 289 kts 43°
2026-04-25 05:22 56.02673 37.66599 10006 ft 288 kts 44°
2026-04-25 05:22 56.04146 37.69085 10006 ft 288 kts 44°
2026-04-25 05:23 56.05612 37.71563 10006 ft 288 kts 44°
2026-04-25 05:23 56.07063 37.74017 10006 ft 288 kts 44°
2026-04-25 05:23 56.08514 37.76474 10006 ft 288 kts 44°
2026-04-25 05:23 56.09965 37.78961 10003 ft 288 kts 46°
2026-04-25 05:24 56.11336 37.81565 10006 ft 288 kts 47°
2026-04-25 05:24 56.12715 37.84218 10005 ft 288 kts 46°
2026-04-25 05:24 56.14285 37.86379 9992 ft 288 kts 24°
2026-04-25 05:24 56.16289 37.87325 10106 ft 309 kts
2026-04-25 05:25 56.18460 37.87734 10554 ft 326 kts
2026-04-25 05:25 56.20765 37.88074 11062 ft 341 kts
2026-04-25 05:25 56.23172 37.88426 11589 ft 356 kts
2026-04-25 05:25 56.25697 37.88803 12131 ft 371 kts
2026-04-25 05:26 56.28310 37.89196 12690 ft 385 kts
2026-04-25 05:26 56.30992 37.89557 13425 ft 393 kts
2026-04-25 05:26 56.33733 37.89910 14276 ft 398 kts
2026-04-25 05:26 56.36474 37.90266 15105 ft 403 kts
2026-04-25 05:27 56.39274 37.90630 15919 ft 407 kts
2026-04-25 05:27 56.42115 37.91009 16718 ft 412 kts
2026-04-25 05:27 56.44986 37.91398 17501 ft 417 kts
2026-04-25 05:27 56.47884 37.91791 18267 ft 422 kts
2026-04-25 05:28 56.50783 37.92185 19010 ft 426 kts
2026-04-25 05:28 56.53768 37.92591 19750 ft 431 kts
2026-04-25 05:28 56.56749 37.92998 20464 ft 436 kts
2026-04-25 05:28 56.59780 37.93412 21165 ft 440 kts
2026-04-25 05:29 56.62837 37.93854 21841 ft 445 kts
2026-04-25 05:29 56.65859 37.94904 22482 ft 449 kts 15°
2026-04-25 05:29 56.68780 37.96833 23099 ft 454 kts 25°
2026-04-25 05:29 56.71524 37.99625 23705 ft 458 kts 34°
2026-04-25 05:30 56.74033 38.03268 24303 ft 462 kts 43°
2026-04-25 05:30 56.76311 38.07297 24894 ft 466 kts 44°
2026-04-25 05:30 56.78620 38.11469 25480 ft 470 kts 45°
2026-04-25 05:30 56.80952 38.15683 26048 ft 474 kts 44°
2026-04-25 05:31 56.83284 38.19899 26603 ft 478 kts 44°
2026-04-25 05:31 56.85645 38.24171 27146 ft 482 kts 44°
2026-04-25 05:31 56.88050 38.28511 27672 ft 486 kts 43°
2026-04-25 05:31 56.90563 38.32539 28184 ft 489 kts 40°
2026-04-25 05:32 56.93165 38.36548 28689 ft 493 kts 40°
2026-04-25 05:32 56.95777 38.40586 29183 ft 497 kts 40°
2026-04-25 05:32 56.98415 38.44685 29779 ft 498 kts 40°
2026-04-25 05:32 57.01035 38.48779 30562 ft 495 kts 40°
2026-04-25 05:33 57.03626 38.52840 31396 ft 491 kts 40°
2026-04-25 05:33 57.06222 38.56922 32158 ft 488 kts 40°
2026-04-25 05:33 57.08767 38.60936 32811 ft 487 kts 40°
2026-04-25 05:33 57.11315 38.64967 33406 ft 485 kts 40°
2026-04-25 05:34 57.13909 38.69080 33930 ft 484 kts 41°
2026-04-25 05:34 57.16441 38.73103 34082 ft 484 kts 41°
2026-04-25 05:34 57.19005 38.77187 34465 ft 485 kts 41°
2026-04-25 05:34 57.21574 38.81287 34890 ft 485 kts 41°
2026-04-25 05:35 57.24123 38.85364 34997 ft 488 kts 41°
2026-04-25 05:35 57.29219 38.93540 35005 ft 484 kts 41°
2026-04-25 05:36 57.34271 39.01677 35005 ft 484 kts 41°
2026-04-25 05:36 57.39331 39.09858 35005 ft 484 kts 41°
2026-04-25 05:37 57.44392 39.18073 35005 ft 484 kts 41°
2026-04-25 05:37 57.49439 39.26294 35005 ft 484 kts 41°
2026-04-25 05:38 57.54495 39.34528 35005 ft 484 kts 41°
2026-04-25 05:38 57.59549 39.42784 35005 ft 484 kts 41°
2026-04-25 05:39 57.64577 39.51033 35005 ft 484 kts 41°
2026-04-25 05:39 57.69620 39.59338 35005 ft 484 kts 41°
2026-04-25 05:40 57.74684 39.67710 35005 ft 484 kts 41°
2026-04-25 05:40 57.79718 39.76066 35005 ft 484 kts 41°
2026-04-25 05:41 57.84755 39.84459 35005 ft 484 kts 41°
2026-04-25 05:41 57.89750 39.92838 35005 ft 484 kts 42°
2026-04-25 05:42 57.94732 40.01279 35005 ft 484 kts 42°
2026-04-25 05:42 57.99752 40.09817 35005 ft 484 kts 42°
2026-04-25 05:43 58.04720 40.18297 35005 ft 484 kts 42°
2026-04-25 05:43 58.09705 40.26838 35005 ft 484 kts 42°
2026-04-25 05:44 58.14688 40.35412 35005 ft 484 kts 42°
2026-04-25 05:44 58.19669 40.43970 35005 ft 484 kts 41°
2026-04-25 05:45 58.24666 40.52509 35005 ft 484 kts 41°
2026-04-25 05:45 58.29645 40.61055 35005 ft 484 kts 41°
2026-04-25 05:46 58.34614 40.69621 35005 ft 484 kts 42°
2026-04-25 05:46 58.39577 40.78211 35005 ft 484 kts 42°
2026-04-25 05:47 58.44533 40.86825 35005 ft 484 kts 42°
2026-04-25 05:47 58.49517 40.95523 35005 ft 484 kts 42°
2026-04-25 05:48 58.54478 41.04216 35005 ft 484 kts 42°
2026-04-25 05:48 58.59418 41.12905 35005 ft 484 kts 42°
2026-04-25 05:49 58.64370 41.21652 35005 ft 484 kts 42°
2026-04-25 05:49 58.69323 41.30436 35005 ft 484 kts 42°
2026-04-25 05:50 58.74253 41.39215 35005 ft 484 kts 42°
2026-04-25 05:50 58.79395 41.47558 35009 ft 484 kts 36°
2026-04-25 05:51 58.84795 41.55203 35005 ft 484 kts 36°
2026-04-25 05:51 58.90237 41.62943 35005 ft 484 kts 36°
2026-04-25 05:52 58.95615 41.70632 35005 ft 484 kts 37°
2026-04-25 05:52 59.01031 41.78415 35005 ft 484 kts 37°
2026-04-25 05:53 59.06411 41.86176 35005 ft 484 kts 37°
2026-04-25 05:53 59.11826 41.94023 35005 ft 484 kts 37°
2026-04-25 05:54 59.17201 42.01844 35005 ft 484 kts 37°
2026-04-25 05:54 59.25284 42.13665 35005 ft 484 kts 37°
2026-04-25 05:55 59.30674 42.21587 35006 ft 484 kts 37°
2026-04-25 05:55 59.36038 42.29505 35005 ft 484 kts 37°
2026-04-25 05:56 59.40908 42.38531 35009 ft 484 kts 47°
2026-04-25 05:56 59.45424 42.48314 35006 ft 484 kts 47°
2026-04-25 05:57 59.49928 42.58134 35006 ft 484 kts 47°
2026-04-25 05:57 59.54419 42.67972 35006 ft 484 kts 48°
2026-04-25 05:58 59.58909 42.77850 35005 ft 484 kts 48°
2026-04-25 05:58 59.63394 42.87761 35005 ft 484 kts 48°
2026-04-25 05:59 59.67860 42.97671 35005 ft 484 kts 48°
2026-04-25 05:59 59.72339 43.07655 35005 ft 484 kts 48°
2026-04-25 06:00 59.76799 43.17630 35005 ft 484 kts 48°
2026-04-25 06:00 59.81265 43.27632 35005 ft 484 kts 48°
2026-04-25 06:01 59.85701 43.37610 35005 ft 484 kts 48°
2026-04-25 06:01 59.90162 43.47688 35005 ft 484 kts 48°
2026-04-25 06:02 59.94545 43.57722 34999 ft 484 kts 51°
2026-04-25 06:02 59.98380 43.68780 35006 ft 484 kts 56°
2026-04-25 06:03 60.02125 43.79994 35006 ft 484 kts 56°
2026-04-25 06:03 60.05846 43.91185 35006 ft 484 kts 56°
2026-04-25 06:04 60.09555 44.02387 35006 ft 484 kts 56°
2026-04-25 06:04 60.13277 44.13683 35005 ft 484 kts 56°
2026-04-25 06:05 60.16972 44.24946 35005 ft 484 kts 56°
2026-04-25 06:05 60.20658 44.36240 35005 ft 484 kts 56°
2026-04-25 06:06 60.24342 44.47582 35005 ft 484 kts 56°
2026-04-25 06:06 60.27998 44.58894 35006 ft 484 kts 56°
2026-04-25 06:07 60.31677 44.70330 35005 ft 484 kts 57°
2026-04-25 06:07 60.35318 44.81706 35005 ft 484 kts 57°
2026-04-25 06:08 60.38953 44.93118 35005 ft 484 kts 57°
2026-04-25 06:08 60.42572 45.04536 35005 ft 484 kts 57°
2026-04-25 06:09 60.46204 45.16051 35005 ft 484 kts 57°
2026-04-25 06:09 60.49810 45.27560 35001 ft 484 kts 59°
2026-04-25 06:10 60.53030 45.39501 35006 ft 484 kts 62°
2026-04-25 06:10 60.56186 45.51561 35006 ft 484 kts 62°
2026-04-25 06:11 60.59342 45.63688 35006 ft 484 kts 62°
2026-04-25 06:11 60.62484 45.75826 35006 ft 484 kts 62°
2026-04-25 06:12 60.65606 45.87954 35006 ft 484 kts 62°
2026-04-25 06:12 60.68716 46.00094 35005 ft 484 kts 62°
2026-04-25 06:13 60.71814 46.12256 35006 ft 484 kts 62°
2026-04-25 06:14 60.76454 46.30600 35006 ft 484 kts 62°
2026-04-25 06:14 60.79271 46.43044 35005 ft 484 kts 66°
2026-04-25 06:15 60.81945 46.55589 35006 ft 484 kts 66°
2026-04-25 06:15 60.84649 46.68265 35006 ft 484 kts 66°
2026-04-25 06:16 60.87290 46.80681 35006 ft 484 kts 66°
2026-04-25 06:16 60.89967 46.93314 35006 ft 484 kts 66°
2026-04-25 06:17 60.92636 47.05980 35006 ft 484 kts 66°
2026-04-25 06:17 60.95303 47.18701 35006 ft 484 kts 66°
2026-04-25 06:18 60.97955 47.31424 35005 ft 484 kts 66°
2026-04-25 06:18 61.00597 47.44183 35005 ft 484 kts 66°
2026-04-25 06:19 61.03213 47.56891 35005 ft 484 kts 66°
2026-04-25 06:19 61.05810 47.69583 35005 ft 484 kts 67°
2026-04-25 06:20 61.08427 47.82456 35005 ft 484 kts 67°
2026-04-25 06:20 61.11028 47.95328 35005 ft 484 kts 67°
2026-04-25 06:21 61.13533 48.07806 35005 ft 484 kts 67°
2026-04-25 06:21 61.16135 48.20801 35005 ft 484 kts 67°
2026-04-25 06:22 61.18702 48.33682 35005 ft 484 kts 67°
2026-04-25 06:22 61.21250 48.46543 35005 ft 484 kts 67°
2026-04-25 06:23 61.23791 48.59460 35005 ft 484 kts 67°
2026-04-25 06:23 61.26263 48.72107 35005 ft 484 kts 68°
2026-04-25 06:24 61.28785 48.85090 35005 ft 484 kts 68°
2026-04-25 06:24 61.31293 48.98090 35006 ft 484 kts 68°
2026-04-25 06:25 61.33786 49.11096 35006 ft 484 kts 68°
2026-04-25 06:25 61.36263 49.24101 35006 ft 484 kts 68°
2026-04-25 06:26 61.38725 49.37116 35006 ft 484 kts 68°
2026-04-25 06:26 61.41166 49.50234 35006 ft 484 kts 69°
2026-04-25 06:27 61.43532 49.63342 35005 ft 484 kts 69°
2026-04-25 06:27 61.45864 49.76338 35005 ft 484 kts 70°
2026-04-25 06:28 61.48221 49.89557 35005 ft 484 kts 70°
2026-04-25 06:28 61.50547 50.02683 35005 ft 484 kts 70°
2026-04-25 06:29 61.52877 50.15921 35006 ft 484 kts 70°
2026-04-25 06:29 61.55198 50.29203 35006 ft 484 kts 70°
2026-04-25 06:30 61.57487 50.42391 35006 ft 484 kts 70°
2026-04-25 06:30 61.59774 50.55655 35006 ft 484 kts 70°
2026-04-25 06:31 61.62039 50.68893 35006 ft 484 kts 70°
2026-04-25 06:31 61.64309 50.82227 35002 ft 484 kts 69°
2026-04-25 06:32 61.67261 50.94918 35006 ft 484 kts 62°
2026-04-25 06:32 61.70408 51.07421 35006 ft 484 kts 62°
2026-04-25 06:33 61.73535 51.19947 35006 ft 484 kts 62°
2026-04-25 06:33 61.76637 51.32467 35006 ft 484 kts 62°
2026-04-25 06:34 61.79725 51.45014 35006 ft 484 kts 62°
2026-04-25 06:34 61.82811 51.57632 35006 ft 484 kts 62°
2026-04-25 06:35 61.85887 51.70288 35006 ft 484 kts 63°
2026-04-25 06:35 61.88964 51.83028 35006 ft 484 kts 63°
2026-04-25 06:36 61.92007 51.95705 35006 ft 484 kts 63°
2026-04-25 06:36 61.95021 52.08332 35006 ft 484 kts 63°
2026-04-25 06:37 61.98071 52.21192 35006 ft 484 kts 63°
2026-04-25 06:37 62.01055 52.33969 35005 ft 484 kts 63°
2026-04-25 06:38 62.04021 52.46753 35006 ft 484 kts 63°
2026-04-25 06:38 62.06987 52.59609 35006 ft 484 kts 63°
2026-04-25 06:39 62.09947 52.72520 35006 ft 484 kts 64°
2026-04-25 06:39 62.12884 52.85403 35006 ft 484 kts 64°
2026-04-25 06:40 62.15825 52.98378 35006 ft 484 kts 64°
2026-04-25 06:40 62.18740 53.11322 35005 ft 484 kts 64°
2026-04-25 06:41 62.21648 53.24313 35005 ft 484 kts 64°
2026-04-25 06:41 62.24552 53.37361 35005 ft 484 kts 64°
2026-04-25 06:42 62.27423 53.50343 35005 ft 484 kts 64°
2026-04-25 06:42 62.30279 53.63345 35005 ft 484 kts 64°
2026-04-25 06:43 62.33114 53.76323 35005 ft 484 kts 65°
2026-04-25 06:43 62.35962 53.89448 35005 ft 484 kts 65°
2026-04-25 06:44 62.38794 54.02534 35005 ft 484 kts 65°
2026-04-25 06:44 62.41624 54.15636 35005 ft 484 kts 65°
2026-04-25 06:45 62.44459 54.28856 35005 ft 484 kts 65°
2026-04-25 06:45 62.47251 54.41953 35005 ft 484 kts 65°
2026-04-25 06:46 62.50048 54.55161 35005 ft 484 kts 65°
2026-04-25 06:46 62.52837 54.68410 35005 ft 484 kts 66°
2026-04-25 06:47 62.55562 54.81442 35005 ft 484 kts 66°
2026-04-25 06:47 62.58311 54.94673 35005 ft 484 kts 66°
2026-04-25 06:48 62.61060 55.07990 35005 ft 484 kts 66°
2026-04-25 06:48 62.63789 55.21292 35005 ft 484 kts 66°
2026-04-25 06:49 62.66512 55.34631 35005 ft 484 kts 65°
2026-04-25 06:49 62.69242 55.47970 35005 ft 484 kts 65°
2026-04-25 06:50 62.71967 55.61369 35005 ft 484 kts 65°
2026-04-25 06:50 62.74672 55.74764 35006 ft 484 kts 66°
2026-04-25 06:51 62.77236 55.87544 35006 ft 484 kts 66°
2026-04-25 06:51 62.79921 56.01011 35006 ft 484 kts 66°
2026-04-25 06:52 62.82583 56.14455 35006 ft 484 kts 66°
2026-04-25 06:52 62.85226 56.27891 35006 ft 484 kts 66°
2026-04-25 06:53 62.87887 56.41511 35006 ft 484 kts 66°
2026-04-25 06:53 62.90513 56.55042 35006 ft 484 kts 66°
2026-04-25 06:54 62.93117 56.68547 35006 ft 484 kts 67°
2026-04-25 06:54 62.95657 56.81809 35006 ft 484 kts 67°
2026-04-25 06:55 62.98249 56.95440 35006 ft 484 kts 67°
2026-04-25 06:55 63.00834 57.09120 35006 ft 484 kts 67°
2026-04-25 06:56 63.03406 57.22836 35006 ft 484 kts 67°
2026-04-25 06:56 63.05962 57.36550 35006 ft 484 kts 67°
2026-04-25 06:57 63.08509 57.50320 35006 ft 484 kts 67°
2026-04-25 06:57 63.11028 57.64026 35005 ft 484 kts 67°
2026-04-25 06:58 63.13392 57.76984 35005 ft 484 kts 68°
2026-04-25 06:58 63.15915 57.90905 35005 ft 484 kts 68°
2026-04-25 06:59 63.18398 58.04702 35005 ft 484 kts 68°
2026-04-25 06:59 63.20871 58.18547 35005 ft 484 kts 68°
2026-04-25 07:00 63.23333 58.32426 35005 ft 484 kts 68°
2026-04-25 07:00 63.25786 58.46350 35005 ft 484 kts 68°
2026-04-25 07:01 63.28212 58.60226 35005 ft 484 kts 68°
2026-04-25 07:01 63.30593 58.73946 35005 ft 484 kts 69°
2026-04-25 07:02 63.32996 58.87888 35005 ft 484 kts 69°
2026-04-25 07:02 63.35389 59.01874 35005 ft 484 kts 69°
2026-04-25 07:03 63.37775 59.15926 35005 ft 484 kts 69°
2026-04-25 07:03 63.40131 59.29902 35005 ft 484 kts 69°
2026-04-25 07:04 63.42482 59.43951 35005 ft 484 kts 69°
2026-04-25 07:04 63.44815 59.58000 35005 ft 484 kts 69°
2026-04-25 07:05 63.47121 59.71997 35006 ft 484 kts 70°
2026-04-25 07:05 63.49051 59.86538 35008 ft 484 kts 77°
2026-04-25 07:06 63.50552 60.01200 35006 ft 484 kts 77°
2026-04-25 07:06 63.52027 60.15820 35006 ft 484 kts 77°
2026-04-25 07:07 63.53492 60.30499 35006 ft 484 kts 77°
2026-04-25 07:07 63.54941 60.45194 35006 ft 484 kts 77°
2026-04-25 07:08 63.56374 60.59904 35006 ft 484 kts 77°
2026-04-25 07:08 63.57767 60.74369 35006 ft 484 kts 78°
2026-04-25 07:09 63.59184 60.89250 35006 ft 484 kts 78°
2026-04-25 07:09 63.60565 61.03934 35006 ft 484 kts 78°
2026-04-25 07:10 63.61947 61.18804 35006 ft 484 kts 78°
2026-04-25 07:10 63.63296 61.33504 35006 ft 484 kts 78°
2026-04-25 07:11 63.64645 61.48373 35006 ft 484 kts 78°
2026-04-25 07:11 63.65971 61.63165 35006 ft 484 kts 78°
2026-04-25 07:12 63.67235 61.77450 35006 ft 484 kts 79°
2026-04-25 07:12 63.69184 61.99816 35006 ft 484 kts 79°
2026-04-25 07:13 63.70454 62.14632 35006 ft 484 kts 79°
2026-04-25 07:13 63.71713 62.29504 35006 ft 484 kts 79°
2026-04-25 07:14 63.72952 62.44336 35006 ft 484 kts 79°
2026-04-25 07:14 63.74188 62.59327 35006 ft 484 kts 79°
2026-04-25 07:15 63.75384 62.74032 35006 ft 484 kts 80°
2026-04-25 07:15 63.76581 62.88946 35006 ft 484 kts 80°
2026-04-25 07:16 63.77760 63.03850 35006 ft 484 kts 80°
2026-04-25 07:16 63.78933 63.18872 35006 ft 484 kts 80°
2026-04-25 07:17 63.80085 63.33852 35006 ft 484 kts 80°
2026-04-25 07:17 63.81217 63.48770 35006 ft 484 kts 80°
2026-04-25 07:18 63.82343 63.63826 35006 ft 484 kts 80°
2026-04-25 07:18 63.83443 63.78773 35006 ft 484 kts 81°
2026-04-25 07:19 63.84533 63.93792 35006 ft 484 kts 81°
2026-04-25 07:19 63.85607 64.08820 35006 ft 484 kts 81°
2026-04-25 07:20 63.86671 64.23933 35006 ft 484 kts 81°
2026-04-25 07:20 63.87715 64.39009 35006 ft 484 kts 81°
2026-04-25 07:21 63.88752 64.54006 35006 ft 484 kts 81°
2026-04-25 07:21 63.89790 64.69072 35006 ft 484 kts 81°
2026-04-25 07:22 63.90813 64.84172 35006 ft 484 kts 81°
2026-04-25 07:22 63.91823 64.99323 35005 ft 484 kts 81°
2026-04-25 07:23 63.93368 65.14061 35006 ft 484 kts 75°
2026-04-25 07:23 63.95120 65.28783 35006 ft 484 kts 75°
2026-04-25 07:24 63.96860 65.43593 35006 ft 484 kts 75°
2026-04-25 07:24 63.98575 65.58355 35006 ft 484 kts 75°
2026-04-25 07:25 64.00283 65.73159 35006 ft 484 kts 75°
2026-04-25 07:25 64.01988 65.88034 35006 ft 484 kts 75°
2026-04-25 07:26 64.03674 66.02895 35006 ft 484 kts 75°
2026-04-25 07:26 64.05341 66.17742 35006 ft 484 kts 75°
2026-04-25 07:27 64.06981 66.32513 35006 ft 484 kts 75°
2026-04-25 07:27 64.08626 66.47478 35006 ft 484 kts 75°
2026-04-25 07:28 64.10243 66.62355 35006 ft 484 kts 75°
2026-04-25 07:28 64.11855 66.77037 35006 ft 484 kts 76°
2026-04-25 07:29 64.13544 66.92065 35006 ft 484 kts 76°
2026-04-25 07:29 64.15205 67.07025 35006 ft 484 kts 76°
2026-04-25 07:30 64.16843 67.21950 35006 ft 484 kts 76°
2026-04-25 07:30 64.18468 67.36927 35006 ft 484 kts 76°
2026-04-25 07:31 64.20072 67.51876 35006 ft 484 kts 76°
2026-04-25 07:31 64.21665 67.66877 35006 ft 484 kts 77°
2026-04-25 07:32 64.23237 67.81844 35006 ft 484 kts 77°
2026-04-25 07:32 64.24801 67.96905 35006 ft 484 kts 77°
2026-04-25 07:33 64.26342 68.11906 35006 ft 484 kts 77°
2026-04-25 07:33 64.27872 68.26971 35006 ft 484 kts 77°
2026-04-25 07:34 64.29386 68.42049 35006 ft 484 kts 77°
2026-04-25 07:34 64.30882 68.57116 35006 ft 484 kts 77°
2026-04-25 07:35 64.32357 68.72136 35006 ft 484 kts 77°
2026-04-25 07:35 64.33829 68.87306 35006 ft 484 kts 77°
2026-04-25 07:36 64.35287 69.02510 35006 ft 484 kts 77°
2026-04-25 07:36 64.36734 69.17781 35005 ft 484 kts 77°
2026-04-25 07:37 64.38158 69.32990 35005 ft 484 kts 77°
2026-04-25 07:37 64.39561 69.48160 35006 ft 484 kts 77°
2026-04-25 07:38 64.40945 69.63309 35006 ft 484 kts 77°
2026-04-25 07:38 64.42304 69.78371 35005 ft 484 kts 78°
2026-04-25 07:39 64.43668 69.93665 35006 ft 484 kts 78°
2026-04-25 07:39 64.44992 70.08868 35006 ft 484 kts 78°
2026-04-25 07:40 64.46296 70.24132 35006 ft 484 kts 78°
2026-04-25 07:40 64.47586 70.39417 35006 ft 484 kts 78°
2026-04-25 07:41 64.48857 70.54672 35006 ft 484 kts 78°
2026-04-25 07:41 64.50123 70.70077 35006 ft 484 kts 79°
2026-04-25 07:42 64.51374 70.85503 35006 ft 484 kts 79°
2026-04-25 07:42 64.52606 71.00908 35006 ft 484 kts 79°
2026-04-25 07:43 64.53812 71.16200 35006 ft 484 kts 79°
2026-04-25 07:43 64.55017 71.31701 35006 ft 484 kts 79°
2026-04-25 07:44 64.56195 71.47067 35006 ft 484 kts 79°
2026-04-25 07:44 64.57366 71.62573 35006 ft 484 kts 79°
2026-04-25 07:45 64.58521 71.78087 35006 ft 484 kts 80°
2026-04-25 07:45 64.59654 71.93554 35006 ft 484 kts 80°
2026-04-25 07:46 64.60764 72.08916 35006 ft 484 kts 80°
2026-04-25 07:46 64.61861 72.24307 35006 ft 484 kts 80°
2026-04-25 07:47 64.62972 72.39615 35006 ft 484 kts 80°
2026-04-25 07:47 64.64074 72.55029 35006 ft 484 kts 80°
2026-04-25 07:48 64.65158 72.70445 35006 ft 484 kts 81°
2026-04-25 07:48 64.66235 72.86021 35006 ft 484 kts 81°
2026-04-25 07:49 64.67288 73.01485 35006 ft 484 kts 81°
2026-04-25 07:49 64.68325 73.16969 35006 ft 484 kts 81°
2026-04-25 07:50 64.69342 73.32412 35006 ft 484 kts 81°
2026-04-25 07:50 64.70354 73.48042 35006 ft 484 kts 81°
2026-04-25 07:51 64.71343 73.63577 35006 ft 484 kts 81°
2026-04-25 07:51 64.72316 73.79127 35006 ft 484 kts 82°
2026-04-25 07:52 64.73270 73.94651 35006 ft 484 kts 82°
2026-04-25 07:52 64.74209 74.10201 35006 ft 484 kts 82°
2026-04-25 07:53 64.75135 74.25825 35006 ft 484 kts 82°
2026-04-25 07:53 64.76047 74.41489 35006 ft 484 kts 82°
2026-04-25 07:54 64.76938 74.57098 35006 ft 484 kts 82°
2026-04-25 07:54 64.77800 74.72484 35006 ft 484 kts 83°
2026-04-25 07:55 64.78673 74.88380 35006 ft 484 kts 83°
2026-04-25 07:55 64.79517 75.04046 35006 ft 484 kts 83°
2026-04-25 07:56 64.80341 75.19669 35006 ft 484 kts 83°
2026-04-25 07:56 64.81152 75.35367 35006 ft 484 kts 83°
2026-04-25 07:57 64.81941 75.50974 35006 ft 484 kts 83°
2026-04-25 07:57 64.82719 75.66686 35006 ft 484 kts 84°
2026-04-25 07:58 64.83472 75.82218 35006 ft 484 kts 84°
2026-04-25 07:58 64.84221 75.98041 35006 ft 483 kts 84°
2026-04-25 07:59 64.84947 76.13747 35006 ft 483 kts 84°
2026-04-25 07:59 64.85655 76.29410 35006 ft 483 kts 84°
2026-04-25 08:00 64.86345 76.45055 35005 ft 483 kts 84°
2026-04-25 08:00 64.87022 76.60770 35005 ft 483 kts 84°
2026-04-25 08:01 64.87682 76.76508 35005 ft 483 kts 84°
2026-04-25 08:01 64.88296 76.91536 35005 ft 483 kts 84°
2026-04-25 08:02 64.88940 77.07288 35006 ft 483 kts 84°
2026-04-25 08:02 64.89587 77.22969 35005 ft 483 kts 84°
2026-04-25 08:03 64.90219 77.38773 35005 ft 483 kts 84°
2026-04-25 08:03 64.90833 77.54524 35005 ft 483 kts 84°
2026-04-25 08:04 64.91428 77.70254 35005 ft 483 kts 85°
2026-04-25 08:04 64.92052 77.86026 35007 ft 483 kts 84°
2026-04-25 08:05 64.92780 78.01798 35005 ft 483 kts 84°
2026-04-25 08:05 64.93480 78.17416 35005 ft 483 kts 84°
2026-04-25 08:06 64.94166 78.33192 35005 ft 483 kts 84°
2026-04-25 08:06 64.94831 78.48933 35005 ft 483 kts 84°
2026-04-25 08:07 64.95482 78.64759 35005 ft 483 kts 84°
2026-04-25 08:07 64.96102 78.80253 35005 ft 483 kts 85°
2026-04-25 08:08 64.96717 78.96051 35006 ft 483 kts 85°
2026-04-25 08:08 64.97312 79.11793 35006 ft 483 kts 85°
2026-04-25 08:09 64.97890 79.27503 35006 ft 483 kts 85°
2026-04-25 08:09 64.98455 79.43330 35006 ft 483 kts 85°
2026-04-25 08:10 64.99002 79.59120 35006 ft 483 kts 85°
2026-04-25 08:10 64.99534 79.74974 35006 ft 483 kts 85°
2026-04-25 08:11 65.00047 79.90770 35006 ft 483 kts 85°
2026-04-25 08:11 65.00540 80.06489 35006 ft 483 kts 85°
2026-04-25 08:12 65.01022 80.22355 35006 ft 483 kts 85°
2026-04-25 08:12 65.01484 80.38142 35006 ft 483 kts 85°
2026-04-25 08:13 65.01931 80.53981 35006 ft 483 kts 85°
2026-04-25 08:14 65.02571 80.77808 35006 ft 483 kts 86°
2026-04-25 08:14 65.02977 80.93693 35006 ft 483 kts 86°
2026-04-25 08:15 65.03364 81.09517 35006 ft 483 kts 86°
2026-04-25 08:15 65.03734 81.25323 35006 ft 483 kts 86°
2026-04-25 08:16 65.04089 81.41216 35006 ft 483 kts 86°
2026-04-25 08:16 65.04424 81.56977 35005 ft 483 kts 86°
2026-04-25 08:17 65.04745 81.72810 35005 ft 483 kts 88°
2026-04-25 08:17 65.05051 81.88805 35005 ft 483 kts 88°
2026-04-25 08:18 65.05338 82.04624 35006 ft 483 kts 88°
2026-04-25 08:18 65.05609 82.20577 35005 ft 483 kts 88°
2026-04-25 08:19 65.05862 82.36423 35006 ft 483 kts 88°
2026-04-25 08:19 65.06099 82.52371 35006 ft 483 kts 88°
2026-04-25 08:20 65.06319 82.68304 35006 ft 483 kts 88°
2026-04-25 08:20 65.06523 82.84256 35006 ft 483 kts 88°
2026-04-25 08:21 65.06709 83.00139 35006 ft 483 kts 88°
2026-04-25 08:21 65.06878 83.16008 35006 ft 483 kts 88°
2026-04-25 08:22 65.07030 83.31834 35005 ft 483 kts 88°
2026-04-25 08:22 65.07165 83.47707 35006 ft 483 kts 88°
2026-04-25 08:23 65.07284 83.63633 35006 ft 483 kts 88°
2026-04-25 08:23 65.07385 83.79557 35005 ft 483 kts 89°
2026-04-25 08:24 65.07465 83.95451 35006 ft 483 kts 89°
2026-04-25 08:24 65.07527 84.11412 35006 ft 483 kts 89°
2026-04-25 08:25 65.07573 84.27306 35006 ft 483 kts 89°
2026-04-25 08:25 65.07602 84.43188 35006 ft 483 kts 89°
2026-04-25 08:26 65.07613 84.59154 35006 ft 483 kts 89°
2026-04-25 08:26 65.07609 84.75056 35006 ft 483 kts 90°
2026-04-25 08:27 65.07587 84.90981 35006 ft 483 kts 90°
2026-04-25 08:27 65.07548 85.06918 35006 ft 483 kts 90°
2026-04-25 08:28 65.07492 85.22800 35006 ft 483 kts 90°
2026-04-25 08:28 65.07419 85.38737 35006 ft 483 kts 90°
2026-04-25 08:29 65.07330 85.54645 35006 ft 483 kts 90°
2026-04-25 08:29 65.07223 85.70588 35006 ft 483 kts 91°
2026-04-25 08:30 65.07099 85.86558 35006 ft 483 kts 91°
2026-04-25 08:30 65.06959 86.02476 35006 ft 483 kts 91°
2026-04-25 08:31 65.06802 86.18318 35006 ft 483 kts 91°
2026-04-25 08:31 65.06628 86.34248 35006 ft 483 kts 91°
2026-04-25 08:32 65.06436 86.50166 35006 ft 483 kts 91°
2026-04-25 08:32 65.06229 86.66079 35006 ft 483 kts 92°
2026-04-25 08:33 65.06004 86.81943 35006 ft 483 kts 92°
2026-04-25 08:33 65.05763 86.97822 35006 ft 483 kts 92°
2026-04-25 08:34 65.05505 87.13698 35006 ft 483 kts 92°
2026-04-25 08:34 65.05230 87.29574 35006 ft 483 kts 92°
2026-04-25 08:35 65.04936 87.45538 35006 ft 483 kts 92°
2026-04-25 08:35 65.04628 87.61378 35006 ft 483 kts 92°
2026-04-25 08:36 65.04302 87.77253 35006 ft 483 kts 93°
2026-04-25 08:36 65.03957 87.93239 35005 ft 483 kts 93°
2026-04-25 08:37 65.03584 88.09054 35005 ft 483 kts 93°
2026-04-25 08:37 65.03185 88.24955 35005 ft 483 kts 93°
2026-04-25 08:38 65.02779 88.40826 35006 ft 483 kts 92°
2026-04-25 08:38 65.02412 88.56592 35005 ft 483 kts 92°
2026-04-25 08:39 65.02026 88.72476 35005 ft 483 kts 94°
2026-04-25 08:39 65.01619 88.88392 35005 ft 483 kts 94°
2026-04-25 08:40 65.01196 89.04278 35005 ft 483 kts 94°
2026-04-25 08:40 65.00756 89.20126 35005 ft 483 kts 94°
2026-04-25 08:41 65.00303 89.35860 35005 ft 483 kts 94°
2026-04-25 08:41 64.99831 89.51662 35005 ft 483 kts 94°
2026-04-25 08:42 64.99341 89.67476 35005 ft 483 kts 94°
2026-04-25 08:42 64.98833 89.83353 35005 ft 483 kts 94°
2026-04-25 08:43 64.98309 89.99179 35005 ft 483 kts 94°
2026-04-25 08:43 64.97769 90.14958 35005 ft 483 kts 94°
2026-04-25 08:44 64.97212 90.30785 35005 ft 483 kts 94°
2026-04-25 08:44 64.96641 90.46481 35005 ft 483 kts 94°
2026-04-25 08:45 64.96050 90.62296 35005 ft 483 kts 94°
2026-04-25 08:45 64.95451 90.77866 35005 ft 483 kts 95°
2026-04-25 08:46 64.94823 90.93755 35005 ft 483 kts 95°
2026-04-25 08:46 64.94183 91.09512 35005 ft 483 kts 95°
2026-04-25 08:47 64.93529 91.25230 35005 ft 483 kts 95°
2026-04-25 08:47 64.92854 91.41003 35005 ft 483 kts 95°
2026-04-25 08:48 64.92164 91.56750 35005 ft 483 kts 95°
2026-04-25 08:48 64.91460 91.72420 35005 ft 483 kts 96°
2026-04-25 08:49 64.90734 91.88214 35005 ft 483 kts 96°
2026-04-25 08:49 64.89995 92.03919 35005 ft 483 kts 96°
2026-04-25 08:50 64.89241 92.19580 35005 ft 483 kts 96°
2026-04-25 08:50 64.88471 92.35223 35005 ft 483 kts 96°
2026-04-25 08:51 64.87682 92.50919 35005 ft 483 kts 96°
2026-04-25 08:51 64.86877 92.66563 35005 ft 483 kts 97°
2026-04-25 08:52 64.86047 92.82382 35005 ft 483 kts 97°
2026-04-25 08:52 64.85211 92.97997 35005 ft 483 kts 97°
2026-04-25 08:53 64.84356 93.13655 35005 ft 483 kts 97°
2026-04-25 08:53 64.83488 93.29212 35005 ft 483 kts 97°
2026-04-25 08:54 64.82599 93.44869 35005 ft 483 kts 97°
2026-04-25 08:54 64.81699 93.60411 35005 ft 483 kts 97°
2026-04-25 08:55 64.80778 93.76033 35005 ft 483 kts 98°
2026-04-25 08:55 64.79844 93.91584 35005 ft 483 kts 98°
2026-04-25 08:56 64.78886 94.07251 35005 ft 483 kts 98°
2026-04-25 08:56 64.77964 94.22884 35005 ft 483 kts 97°
2026-04-25 08:57 64.77086 94.38554 35005 ft 483 kts 97°
2026-04-25 08:57 64.76196 94.54050 35005 ft 483 kts 97°
2026-04-25 08:58 64.75285 94.69588 35005 ft 483 kts 98°
2026-04-25 08:58 64.74353 94.85166 35005 ft 483 kts 98°
2026-04-25 08:59 64.73402 95.00773 35005 ft 483 kts 98°
2026-04-25 08:59 64.72438 95.16299 35005 ft 483 kts 98°
2026-04-25 09:00 64.71453 95.31889 35005 ft 483 kts 98°
2026-04-25 09:00 64.70461 95.47327 35005 ft 483 kts 98°
2026-04-25 09:01 64.69444 95.62886 35005 ft 483 kts 98°
2026-04-25 09:01 64.68413 95.78392 35005 ft 483 kts 99°
2026-04-25 09:02 64.67367 95.93882 35005 ft 483 kts 99°
2026-04-25 09:02 64.66304 96.09363 35005 ft 483 kts 99°
2026-04-25 09:03 64.65227 96.24802 35005 ft 483 kts 99°
2026-04-25 09:03 64.64131 96.40268 35005 ft 483 kts 99°
2026-04-25 09:04 64.63020 96.55711 35005 ft 483 kts 99°
2026-04-25 09:04 64.61891 96.71159 35005 ft 483 kts 100°
2026-04-25 09:05 64.60744 96.86620 35005 ft 483 kts 100°
2026-04-25 09:05 64.59586 97.02016 35005 ft 483 kts 100°
2026-04-25 09:06 64.58416 97.17329 35005 ft 483 kts 100°
2026-04-25 09:06 64.57228 97.32655 35005 ft 483 kts 100°
2026-04-25 09:07 64.56018 97.48057 35005 ft 483 kts 100°
2026-04-25 09:07 64.54793 97.63421 35005 ft 483 kts 100°
2026-04-25 09:08 64.53552 97.78789 35005 ft 483 kts 101°
2026-04-25 09:08 64.52294 97.94130 35005 ft 483 kts 101°
2026-04-25 09:09 64.51035 98.09297 35005 ft 483 kts 101°
2026-04-25 09:09 64.49741 98.24663 35005 ft 483 kts 101°
2026-04-25 09:10 64.48440 98.39925 35005 ft 483 kts 101°
2026-04-25 09:10 64.47121 98.55198 35005 ft 483 kts 101°
2026-04-25 09:11 64.45112 98.78079 35005 ft 483 kts 102°
2026-04-25 09:11 64.43748 98.93370 35005 ft 483 kts 102°
2026-04-25 09:12 64.42382 99.08494 35005 ft 483 kts 102°
2026-04-25 09:12 64.40991 99.23701 35005 ft 483 kts 102°
2026-04-25 09:13 64.39588 99.38858 35005 ft 483 kts 102°
2026-04-25 09:13 64.38172 99.53973 35005 ft 483 kts 102°
2026-04-25 09:14 64.36733 99.69144 35005 ft 483 kts 103°
2026-04-25 09:14 64.35273 99.84359 35005 ft 483 kts 103°
2026-04-25 09:15 64.33808 99.99448 35005 ft 483 kts 103°
2026-04-25 09:15 64.32326 100.14543 35005 ft 483 kts 103°
2026-04-25 09:16 64.30822 100.29677 35005 ft 483 kts 103°
2026-04-25 09:16 64.29070 100.44577 35006 ft 483 kts 110°
2026-04-25 09:17 64.25337 100.66148 35005 ft 483 kts 112°
2026-04-25 09:18 64.22783 100.80472 35005 ft 483 kts 112°
2026-04-25 09:18 64.20209 100.94723 35005 ft 483 kts 112°
2026-04-25 09:19 64.17600 101.09023 35005 ft 483 kts 112°
2026-04-25 09:19 64.15001 101.23148 35005 ft 483 kts 112°
2026-04-25 09:20 64.12374 101.37313 35005 ft 483 kts 112°
2026-04-25 09:20 64.09741 101.51402 35005 ft 483 kts 112°
2026-04-25 09:21 64.07091 101.65482 35005 ft 483 kts 114°
2026-04-25 09:21 64.04411 101.79621 35005 ft 483 kts 114°
2026-04-25 09:22 64.01727 101.93672 35005 ft 483 kts 114°
2026-04-25 09:22 63.99050 102.07596 35005 ft 483 kts 114°
2026-04-25 09:23 63.96352 102.21533 35005 ft 483 kts 114°
2026-04-25 09:23 63.93635 102.35474 35005 ft 483 kts 114°
2026-04-25 09:24 63.90900 102.49405 35005 ft 483 kts 114°
2026-04-25 09:24 63.88150 102.63321 35005 ft 483 kts 114°
2026-04-25 09:25 63.85389 102.77198 35005 ft 483 kts 114°
2026-04-25 09:25 63.82620 102.91019 35005 ft 483 kts 114°
2026-04-25 09:26 63.79828 103.04862 35005 ft 483 kts 114°
2026-04-25 09:26 63.77043 103.18581 35005 ft 483 kts 114°
2026-04-25 09:27 63.74241 103.32290 35005 ft 483 kts 114°
2026-04-25 09:27 63.71429 103.45961 35005 ft 483 kts 114°
2026-04-25 09:28 63.68594 103.59650 35005 ft 483 kts 114°
2026-04-25 09:28 63.65746 103.73309 35005 ft 483 kts 115°
2026-04-25 09:29 63.62867 103.87031 35005 ft 483 kts 115°
2026-04-25 09:29 63.59986 104.00671 35005 ft 483 kts 115°
2026-04-25 09:30 63.57108 104.14217 35005 ft 483 kts 115°
2026-04-25 09:30 63.54203 104.27804 35005 ft 483 kts 115°
2026-04-25 09:31 63.51296 104.41311 35005 ft 483 kts 115°
2026-04-25 09:31 63.48377 104.54786 35005 ft 483 kts 115°
2026-04-25 09:32 63.45446 104.68234 35005 ft 483 kts 116°
2026-04-25 09:32 63.42482 104.81744 35005 ft 483 kts 116°
2026-04-25 09:33 63.39528 104.95125 35005 ft 483 kts 116°
2026-04-25 09:33 63.36556 105.08500 35005 ft 483 kts 116°
2026-04-25 09:34 63.33570 105.21856 35005 ft 483 kts 116°
2026-04-25 09:34 63.30578 105.35159 35005 ft 483 kts 116°
2026-04-25 09:35 63.27560 105.48492 35005 ft 483 kts 116°
2026-04-25 09:35 63.24543 105.61739 35005 ft 483 kts 116°
2026-04-25 09:36 63.21516 105.74948 35005 ft 483 kts 117°
2026-04-25 09:36 63.18449 105.88248 35005 ft 483 kts 117°
2026-04-25 09:37 63.15374 106.01499 35005 ft 483 kts 117°
2026-04-25 09:37 63.12310 106.14626 35005 ft 483 kts 117°
2026-04-25 09:38 63.09222 106.27777 35005 ft 483 kts 117°
2026-04-25 09:38 63.06119 106.40906 35005 ft 483 kts 117°
2026-04-25 09:39 63.03019 106.53952 35005 ft 483 kts 117°
2026-04-25 09:39 62.99887 106.67048 35005 ft 483 kts 118°
2026-04-25 09:40 62.95187 106.86555 35005 ft 483 kts 118°
2026-04-25 09:40 62.92036 106.99537 35005 ft 483 kts 118°
2026-04-25 09:41 62.88931 107.12610 35005 ft 483 kts 117°
2026-04-25 09:41 62.85847 107.25638 35005 ft 483 kts 117°
2026-04-25 09:42 62.82743 107.38657 35005 ft 482 kts 117°
2026-04-25 09:42 62.79628 107.51638 35005 ft 482 kts 117°
2026-04-25 09:43 62.76509 107.64552 35005 ft 482 kts 117°
2026-04-25 09:43 62.73369 107.77474 35005 ft 482 kts 118°
2026-04-25 09:44 62.70199 107.90441 35005 ft 482 kts 118°
2026-04-25 09:44 62.67032 108.03319 35005 ft 482 kts 118°
2026-04-25 09:45 62.63861 108.16141 35005 ft 482 kts 118°
2026-04-25 09:45 62.60676 108.28942 35005 ft 482 kts 118°
2026-04-25 09:46 62.57474 108.41737 35005 ft 482 kts 118°
2026-04-25 09:46 62.54276 108.54440 35005 ft 482 kts 118°
2026-04-25 09:47 62.51057 108.67157 35005 ft 482 kts 119°
2026-04-25 09:47 62.47801 108.79944 35005 ft 482 kts 119°
2026-04-25 09:48 62.44566 108.92577 35005 ft 482 kts 119°
2026-04-25 09:48 62.41314 109.05202 35005 ft 482 kts 119°
2026-04-25 09:49 62.38051 109.17802 35005 ft 482 kts 119°
2026-04-25 09:49 62.34792 109.30311 35005 ft 482 kts 119°
2026-04-25 09:50 62.31502 109.42870 35005 ft 482 kts 119°
2026-04-25 09:50 62.28215 109.55352 35005 ft 482 kts 119°
2026-04-25 09:51 62.24909 109.67829 35005 ft 482 kts 120°
2026-04-25 09:51 62.21600 109.80255 35005 ft 482 kts 120°
2026-04-25 09:52 62.18261 109.92721 35005 ft 482 kts 120°
2026-04-25 09:52 62.14908 110.05167 35005 ft 482 kts 120°
2026-04-25 09:53 62.11554 110.17552 35005 ft 482 kts 120°
2026-04-25 09:53 62.08199 110.29869 35005 ft 482 kts 120°
2026-04-25 09:54 62.04810 110.42245 35005 ft 482 kts 120°
2026-04-25 09:54 62.01443 110.54475 35005 ft 482 kts 120°
2026-04-25 09:55 61.98026 110.66818 35005 ft 482 kts 121°
2026-04-25 09:55 61.94639 110.78986 35005 ft 482 kts 121°
2026-04-25 09:56 61.91196 110.91289 35005 ft 482 kts 121°
2026-04-25 09:56 61.87782 111.03423 35005 ft 482 kts 121°
2026-04-25 09:57 61.84317 111.15669 35005 ft 482 kts 121°
2026-04-25 09:57 61.80890 111.27719 35005 ft 482 kts 121°
2026-04-25 09:58 61.77413 111.39880 35005 ft 482 kts 121°
2026-04-25 09:58 61.73944 111.51948 35005 ft 482 kts 121°
2026-04-25 09:59 61.70481 111.63934 35005 ft 482 kts 121°
2026-04-25 09:59 61.66995 111.75932 35005 ft 482 kts 122°
2026-04-25 10:00 61.63472 111.87994 35005 ft 482 kts 122°
2026-04-25 10:00 61.59969 111.99927 35005 ft 482 kts 122°
2026-04-25 10:01 61.56430 112.11921 35005 ft 482 kts 122°
2026-04-25 10:01 61.52897 112.23829 35005 ft 482 kts 122°
2026-04-25 10:02 61.49348 112.35729 35005 ft 482 kts 122°
2026-04-25 10:02 61.45801 112.47563 35005 ft 482 kts 122°
2026-04-25 10:03 61.42249 112.59350 35005 ft 482 kts 122°
2026-04-25 10:03 61.38662 112.71195 35005 ft 482 kts 122°
2026-04-25 10:04 61.35056 112.83039 35005 ft 482 kts 122°
2026-04-25 10:04 61.31470 112.94756 35005 ft 482 kts 122°
2026-04-25 10:05 61.27870 113.06464 35005 ft 482 kts 122°
2026-04-25 10:05 61.24263 113.18129 35005 ft 482 kts 122°
2026-04-25 10:06 61.20650 113.29759 35005 ft 482 kts 122°
2026-04-25 10:06 61.17019 113.41385 35005 ft 482 kts 122°
2026-04-25 10:07 61.13367 113.53020 35005 ft 482 kts 122°
2026-04-25 10:07 61.09731 113.64549 35005 ft 482 kts 122°
2026-04-25 10:08 61.06240 113.75560 35005 ft 481 kts 123°
2026-04-25 10:08 61.02590 113.87021 35005 ft 482 kts 123°
2026-04-25 10:09 60.98889 113.98582 35005 ft 482 kts 123°
2026-04-25 10:09 60.95197 114.10058 35005 ft 482 kts 123°
2026-04-25 10:10 60.91499 114.21495 35005 ft 482 kts 123°
2026-04-25 10:10 60.87835 114.32770 35005 ft 482 kts 123°
2026-04-25 10:11 60.84076 114.44285 35005 ft 481 kts 123°
2026-04-25 10:11 60.82119 114.50256 35005 ft 482 kts 123°
2026-04-25 10:12 60.78401 114.61558 35005 ft 482 kts 123°
2026-04-25 10:13 60.72769 114.78574 35005 ft 482 kts 124°
2026-04-25 10:13 60.69154 114.90019 35006 ft 482 kts 121°
2026-04-25 10:14 60.65680 115.01672 35005 ft 482 kts 121°
2026-04-25 10:14 60.62191 115.13264 35005 ft 482 kts 121°
2026-04-25 10:15 60.59964 115.20618 35005 ft 482 kts 121°
2026-04-25 10:15 60.56443 115.32176 35005 ft 482 kts 121°
2026-04-25 10:16 60.52934 115.43630 35005 ft 481 kts 121°
2026-04-25 10:16 60.49388 115.55136 35005 ft 481 kts 121°
2026-04-25 10:17 60.45823 115.66648 35005 ft 482 kts 122°
2026-04-25 10:17 60.42239 115.78162 35005 ft 482 kts 122°
2026-04-25 10:18 60.38683 115.89526 35005 ft 482 kts 122°
2026-04-25 10:18 60.35074 116.01002 35005 ft 482 kts 122°
2026-04-25 10:19 60.31498 116.12304 35005 ft 482 kts 122°
2026-04-25 10:19 60.27884 116.23672 35005 ft 482 kts 122°
2026-04-25 10:20 60.24281 116.34947 35005 ft 482 kts 122°
2026-04-25 10:20 60.20652 116.46249 35005 ft 482 kts 122°
2026-04-25 10:21 60.17033 116.57467 35005 ft 482 kts 122°
2026-04-25 10:21 60.13390 116.68703 35005 ft 482 kts 123°
2026-04-25 10:22 60.09716 116.79983 35005 ft 482 kts 123°
2026-04-25 10:22 60.06049 116.91186 35005 ft 482 kts 123°
2026-04-25 10:23 60.02382 117.02337 35005 ft 482 kts 123°
2026-04-25 10:23 59.98710 117.13448 35005 ft 482 kts 123°
2026-04-25 10:24 59.95034 117.24518 35005 ft 482 kts 123°
2026-04-25 10:24 59.91304 117.35698 35005 ft 482 kts 123°
2026-04-25 10:25 59.87587 117.46749 35005 ft 481 kts 123°
2026-04-25 10:25 59.83826 117.57749 35005 ft 482 kts 123°
2026-04-25 10:26 59.80058 117.68721 35005 ft 482 kts 124°
2026-04-25 10:26 59.76353 117.79462 35005 ft 482 kts 124°
2026-04-25 10:27 59.72552 117.90430 35005 ft 481 kts 124°
2026-04-25 10:27 59.68743 118.01377 35005 ft 481 kts 124°
2026-04-25 10:28 59.64967 118.12174 35005 ft 481 kts 124°
2026-04-25 10:28 59.61145 118.23057 35005 ft 481 kts 124°
2026-04-25 10:29 59.57315 118.33910 35005 ft 481 kts 124°
2026-04-25 10:29 59.53504 118.44660 35005 ft 481 kts 124°
2026-04-25 10:30 59.49653 118.55474 35005 ft 481 kts 124°
2026-04-25 10:30 59.45823 118.66180 35005 ft 481 kts 125°
2026-04-25 10:31 59.41965 118.76914 35005 ft 481 kts 125°
2026-04-25 10:31 59.38094 118.87636 35005 ft 481 kts 125°
2026-04-25 10:32 59.34223 118.98309 35005 ft 481 kts 125°
2026-04-25 10:32 59.30356 119.08923 35005 ft 481 kts 125°
2026-04-25 10:33 59.26458 119.19573 35005 ft 481 kts 125°
2026-04-25 10:33 59.22564 119.30166 35005 ft 481 kts 125°
2026-04-25 10:34 59.18659 119.40742 35005 ft 481 kts 125°
2026-04-25 10:34 59.14735 119.51320 35005 ft 481 kts 125°
2026-04-25 10:35 59.10832 119.61794 35005 ft 481 kts 125°
2026-04-25 10:35 59.06968 119.72087 35005 ft 481 kts 126°
2026-04-25 10:36 59.02983 119.82650 35005 ft 481 kts 126°
2026-04-25 10:36 58.99009 119.93141 35005 ft 481 kts 126°
2026-04-25 10:37 58.95045 120.03558 35005 ft 481 kts 126°
2026-04-25 10:37 58.91093 120.13895 35005 ft 481 kts 126°
2026-04-25 10:38 58.87103 120.24292 35005 ft 481 kts 126°
2026-04-25 10:38 58.83120 120.34620 35005 ft 481 kts 126°
2026-04-25 10:39 58.79081 120.45051 35005 ft 481 kts 126°
2026-04-25 10:39 58.75059 120.55390 35005 ft 481 kts 126°
2026-04-25 10:40 58.71046 120.65665 35005 ft 481 kts 127°
2026-04-25 10:40 58.67015 120.75938 35005 ft 481 kts 127°
2026-04-25 10:41 58.62663 120.85563 35006 ft 481 kts 134°
2026-04-25 10:41 58.57957 120.94724 35005 ft 481 kts 135°
2026-04-25 10:42 58.53232 121.03875 35005 ft 481 kts 135°
2026-04-25 10:42 58.48533 121.12936 35005 ft 481 kts 135°
2026-04-25 10:43 58.43842 121.21944 35005 ft 481 kts 135°
2026-04-25 10:43 58.39133 121.30951 35005 ft 481 kts 135°
2026-04-25 10:44 58.34378 121.40009 35004 ft 481 kts 135°
2026-04-25 10:44 58.29673 121.48933 35004 ft 481 kts 135°
2026-04-25 10:45 58.24914 121.57928 35004 ft 481 kts 135°
2026-04-25 10:45 58.20172 121.66852 35004 ft 481 kts 135°
2026-04-25 10:46 58.15438 121.75726 35004 ft 481 kts 135°
2026-04-25 10:46 58.10875 121.84246 35004 ft 481 kts 135°
2026-04-25 10:47 58.06114 121.93103 35004 ft 481 kts 135°
2026-04-25 10:47 58.01362 122.01907 35004 ft 481 kts 135°
2026-04-25 10:48 57.96588 122.10719 35004 ft 481 kts 135°
2026-04-25 10:48 57.91826 122.19471 35004 ft 481 kts 135°
2026-04-25 10:49 57.87080 122.28162 35004 ft 481 kts 135°
2026-04-25 10:49 57.82360 122.36773 35004 ft 481 kts 135°
2026-04-25 10:50 57.77588 122.45443 35004 ft 480 kts 135°
2026-04-25 10:50 57.72794 122.54119 35004 ft 480 kts 135°
2026-04-25 10:51 57.68000 122.62763 35004 ft 480 kts 135°
2026-04-25 10:51 57.63184 122.71413 35004 ft 480 kts 136°
2026-04-25 10:52 57.58331 122.80094 35004 ft 480 kts 136°
2026-04-25 10:52 57.53520 122.88668 35004 ft 480 kts 136°
2026-04-25 10:53 57.48694 122.97236 35004 ft 480 kts 136°
2026-04-25 10:53 57.43865 123.05775 35004 ft 480 kts 136°
2026-04-25 10:54 57.39042 123.14271 35004 ft 480 kts 136°
2026-04-25 10:54 57.34208 123.22755 35004 ft 480 kts 136°
2026-04-25 10:55 57.29357 123.31235 35004 ft 480 kts 136°
2026-04-25 10:55 57.24475 123.39738 35004 ft 480 kts 136°
2026-04-25 10:56 57.19639 123.48129 35004 ft 480 kts 136°
2026-04-25 10:56 57.14757 123.56567 35004 ft 480 kts 136°
2026-04-25 10:57 57.09912 123.64913 35004 ft 480 kts 136°
2026-04-25 10:57 57.05034 123.73283 35004 ft 480 kts 137°
2026-04-25 10:58 57.00108 123.81684 35004 ft 480 kts 137°
2026-04-25 10:58 56.95233 123.89964 35004 ft 480 kts 137°
2026-04-25 10:59 56.90343 123.98241 35004 ft 480 kts 137°
2026-04-25 10:59 56.85424 124.06535 35004 ft 480 kts 137°
2026-04-25 11:00 56.80495 124.14814 35004 ft 480 kts 137°
2026-04-25 11:00 56.75587 124.23029 35004 ft 480 kts 137°
2026-04-25 11:01 56.70673 124.31223 35004 ft 480 kts 137°
2026-04-25 11:01 56.65762 124.39381 35004 ft 480 kts 137°
2026-04-25 11:02 56.60827 124.47550 35004 ft 480 kts 137°
2026-04-25 11:02 56.55907 124.55663 35004 ft 480 kts 137°
2026-04-25 11:03 56.50959 124.63793 35004 ft 480 kts 137°
2026-04-25 11:03 56.46015 124.71886 35004 ft 480 kts 138°
2026-04-25 11:04 56.41035 124.80009 35004 ft 480 kts 138°
2026-04-25 11:04 56.36102 124.88027 35004 ft 480 kts 138°
2026-04-25 11:05 56.31119 124.96102 35004 ft 480 kts 138°
2026-04-25 11:05 56.26158 125.04114 35004 ft 480 kts 138°
2026-04-25 11:06 56.21194 125.12101 35004 ft 480 kts 138°
2026-04-25 11:06 56.16206 125.20097 35004 ft 480 kts 138°
2026-04-25 11:07 56.11247 125.28018 35005 ft 480 kts 138°
2026-04-25 11:07 56.06250 125.35970 35005 ft 480 kts 138°
2026-04-25 11:08 56.01268 125.43880 35004 ft 480 kts 138°
2026-04-25 11:08 55.96284 125.51767 35004 ft 480 kts 138°
2026-04-25 11:09 55.91279 125.59659 35004 ft 480 kts 138°
2026-04-25 11:09 55.86366 125.67378 35004 ft 480 kts 139°
2026-04-25 11:10 55.81337 125.75249 35004 ft 480 kts 139°
2026-04-25 11:10 55.76286 125.83130 35004 ft 480 kts 139°
2026-04-25 11:11 55.71264 125.90934 35004 ft 480 kts 139°
2026-04-25 11:11 55.66227 125.98737 35004 ft 480 kts 139°
2026-04-25 11:12 55.61225 126.06455 35004 ft 480 kts 139°
2026-04-25 11:12 55.56187 126.14203 35004 ft 480 kts 139°
2026-04-25 11:13 55.51154 126.21916 35005 ft 480 kts 139°
2026-04-25 11:13 55.46129 126.29589 35005 ft 480 kts 139°
2026-04-25 11:14 55.41060 126.37303 35005 ft 480 kts 139°
2026-04-25 11:14 55.36006 126.44967 35005 ft 480 kts 139°
2026-04-25 11:15 55.30969 126.52578 35005 ft 480 kts 139°
2026-04-25 11:15 55.25911 126.60179 35005 ft 480 kts 139°
2026-04-25 11:16 55.18322 126.71532 35005 ft 480 kts 140°
2026-04-25 11:16 55.13207 126.79151 35005 ft 480 kts 140°
2026-04-25 11:17 55.08149 126.86659 35005 ft 480 kts 140°
2026-04-25 11:17 55.03041 126.94216 35005 ft 480 kts 140°
2026-04-25 11:18 54.97958 127.01710 35005 ft 480 kts 140°
2026-04-25 11:18 54.92877 127.09174 35005 ft 480 kts 140°
2026-04-25 11:19 54.87755 127.16674 35005 ft 480 kts 140°
2026-04-25 11:19 54.82648 127.24126 35005 ft 480 kts 140°
2026-04-25 11:20 54.77851 127.31271 35005 ft 480 kts 138°
2026-04-25 11:20 54.72873 127.38905 35005 ft 480 kts 138°
2026-04-25 11:21 54.67893 127.46504 35005 ft 480 kts 138°
2026-04-25 11:21 54.62878 127.54121 35005 ft 480 kts 138°
2026-04-25 11:22 54.58728 127.60400 35005 ft 480 kts 138°
2026-04-25 11:22 54.52862 127.69240 35005 ft 480 kts 139°
2026-04-25 11:23 54.47842 127.76777 35005 ft 480 kts 139°
2026-04-25 11:23 54.42823 127.84287 35005 ft 480 kts 139°
2026-04-25 11:24 54.37759 127.91837 35005 ft 480 kts 139°
2026-04-25 11:24 54.32738 127.99297 35005 ft 480 kts 139°
2026-04-25 11:25 54.27694 128.06766 35005 ft 480 kts 139°
2026-04-25 11:25 54.22654 128.14206 35005 ft 480 kts 139°
2026-04-25 11:26 54.17617 128.21616 35005 ft 480 kts 139°
2026-04-25 11:26 54.12561 128.29027 35005 ft 480 kts 139°
2026-04-25 11:27 54.07497 128.36426 35005 ft 480 kts 139°
2026-04-25 11:27 54.04693 128.40521 35005 ft 480 kts 139°
2026-04-25 11:28 53.99521 128.48055 35005 ft 480 kts 139°
2026-04-25 11:28 53.94439 128.55432 35005 ft 480 kts 139°
2026-04-25 11:29 53.89393 128.62733 35005 ft 480 kts 139°
2026-04-25 11:29 53.84402 128.69933 35005 ft 480 kts 140°
2026-04-25 11:30 53.79353 128.77190 35005 ft 480 kts 140°
2026-04-25 11:30 53.74348 128.84361 35005 ft 480 kts 140°
2026-04-25 11:31 53.69243 128.91652 35005 ft 480 kts 140°
2026-04-25 11:31 53.64132 128.98926 35005 ft 480 kts 140°
2026-04-25 11:32 53.59031 129.06163 35005 ft 480 kts 140°
2026-04-25 11:32 53.53944 129.13356 35005 ft 480 kts 140°
2026-04-25 11:33 53.48854 129.20531 35005 ft 480 kts 140°
2026-04-25 11:33 53.43726 129.27733 35005 ft 480 kts 140°
2026-04-25 11:34 53.38643 129.34850 35005 ft 480 kts 140°
2026-04-25 11:34 53.33512 129.42011 35005 ft 480 kts 140°
2026-04-25 11:35 53.28392 129.49133 35005 ft 480 kts 140°
2026-04-25 11:35 53.23269 129.56236 35005 ft 479 kts 140°
2026-04-25 11:36 53.18165 129.63292 35005 ft 479 kts 140°
2026-04-25 11:36 53.13021 129.70378 35005 ft 479 kts 141°
2026-04-25 11:37 53.07893 129.77422 35005 ft 479 kts 141°
2026-04-25 11:37 53.02734 129.84485 35005 ft 479 kts 141°
2026-04-25 11:38 52.97582 129.91513 35005 ft 479 kts 141°
2026-04-25 11:38 52.92440 129.98506 35005 ft 479 kts 141°
2026-04-25 11:39 52.87320 130.05443 35005 ft 479 kts 141°
2026-04-25 11:39 52.82223 130.12324 35005 ft 479 kts 141°
2026-04-25 11:40 52.77060 130.19275 35005 ft 479 kts 141°
2026-04-25 11:40 52.71891 130.26211 35005 ft 479 kts 141°
2026-04-25 11:41 52.66723 130.33125 35005 ft 479 kts 141°
2026-04-25 11:41 52.61554 130.40018 35005 ft 479 kts 141°
2026-04-25 11:42 52.56376 130.46901 35005 ft 479 kts 141°
2026-04-25 11:42 52.51188 130.53777 35005 ft 479 kts 141°
2026-04-25 11:43 52.45978 130.60658 35005 ft 479 kts 141°
2026-04-25 11:43 52.40794 130.67487 35005 ft 479 kts 141°
2026-04-25 11:44 52.35592 130.74315 35005 ft 479 kts 141°
2026-04-25 11:44 52.30413 130.81093 35005 ft 479 kts 141°
2026-04-25 11:45 52.25215 130.87875 35005 ft 479 kts 141°
2026-04-25 11:45 52.19990 130.94670 35005 ft 479 kts 141°
2026-04-25 11:46 52.14774 131.01434 35005 ft 479 kts 141°
2026-04-25 11:46 52.09564 131.08170 35005 ft 479 kts 141°
2026-04-25 11:47 52.04353 131.14883 35005 ft 479 kts 141°
2026-04-25 11:47 51.99145 131.21571 35005 ft 479 kts 141°
2026-04-25 11:48 51.93922 131.28258 35005 ft 479 kts 141°
2026-04-25 11:48 51.88683 131.34946 35005 ft 479 kts 141°
2026-04-25 11:49 51.83414 131.41649 35005 ft 479 kts 141°
2026-04-25 11:49 51.78189 131.48277 35005 ft 479 kts 141°
2026-04-25 11:50 51.73226 131.54553 35004 ft 479 kts 141°
2026-04-25 11:50 51.67977 131.61173 35005 ft 479 kts 141°
2026-04-25 11:51 51.62738 131.67757 35005 ft 479 kts 142°
2026-04-25 11:51 51.57486 131.74339 35004 ft 479 kts 143°
2026-04-25 11:52 51.52202 131.80925 35004 ft 479 kts 142°
2026-04-25 11:52 51.46969 131.87433 35004 ft 479 kts 142°
2026-04-25 11:53 51.41699 131.93973 35004 ft 479 kts 142°
2026-04-25 11:53 51.36456 132.00462 35004 ft 479 kts 142°
2026-04-25 11:54 51.31131 132.07036 35004 ft 479 kts 142°
2026-04-25 11:55 51.23210 132.16775 35004 ft 479 kts 142°
2026-04-25 11:55 51.17948 132.23201 35005 ft 479 kts 144°
2026-04-25 11:56 51.12504 132.29349 35005 ft 479 kts 145°
2026-04-25 11:56 51.07053 132.35461 35005 ft 479 kts 145°
2026-04-25 11:57 51.01629 132.41544 35005 ft 479 kts 144°
2026-04-25 11:57 50.96170 132.47653 35005 ft 479 kts 144°
2026-04-25 11:58 50.90733 132.53726 35005 ft 479 kts 144°
2026-04-25 11:58 50.85303 132.59776 35005 ft 479 kts 144°
2026-04-25 11:59 50.79804 132.65887 35004 ft 479 kts 145°
2026-04-25 11:59 50.74453 132.71815 35004 ft 479 kts 145°
2026-04-25 12:00 50.66221 132.80905 35004 ft 479 kts 145°
2026-04-25 12:01 50.58054 132.89885 35004 ft 479 kts 145°
2026-04-25 12:01 50.52578 132.95883 35004 ft 479 kts 145°
2026-04-25 12:02 50.44381 133.04829 35004 ft 479 kts 145°
2026-04-25 12:02 50.38914 133.10776 35004 ft 479 kts 145°
2026-04-25 12:03 50.33454 133.16698 35004 ft 479 kts 145°
2026-04-25 12:03 50.27983 133.22615 35004 ft 479 kts 145°
2026-04-25 12:04 50.22495 133.28534 35004 ft 479 kts 145°
2026-04-25 12:04 50.17014 133.34427 35004 ft 479 kts 145°
2026-04-25 12:05 50.11565 133.40271 35004 ft 479 kts 145°
2026-04-25 12:05 50.06056 133.46137 35005 ft 479 kts 146°
2026-04-25 12:06 50.00560 133.51915 35005 ft 479 kts 146°
2026-04-25 12:06 49.95028 133.57718 35005 ft 479 kts 146°
2026-04-25 12:07 49.89503 133.63498 35005 ft 479 kts 146°
2026-04-25 12:07 49.83969 133.69273 35005 ft 479 kts 147°
2026-04-25 12:08 49.78431 133.75037 35005 ft 479 kts 147°
2026-04-25 12:08 49.74101 133.79532 35005 ft 479 kts 147°
2026-04-25 12:09 49.68561 133.85269 35005 ft 479 kts 147°
2026-04-25 12:09 49.63736 133.90254 35005 ft 479 kts 147°
2026-04-25 12:10 49.58208 133.95949 35005 ft 479 kts 147°
2026-04-25 12:10 49.52667 134.01642 35005 ft 479 kts 147°
2026-04-25 12:11 49.47135 134.07310 35005 ft 479 kts 147°
2026-04-25 12:11 49.41611 134.12972 35005 ft 479 kts 146°
2026-04-25 12:12 49.37007 134.17682 35005 ft 478 kts 146°
2026-04-25 12:12 49.30557 134.24263 35005 ft 478 kts 146°
2026-04-25 12:13 49.25004 134.29909 35005 ft 478 kts 146°
2026-04-25 12:13 49.19472 134.35519 35005 ft 478 kts 146°
2026-04-25 12:14 49.13918 134.41138 35005 ft 478 kts 146°
2026-04-25 12:14 49.08102 134.45993 35015 ft 478 kts 160°
2026-04-25 12:15 49.01640 134.48268 35009 ft 478 kts 171°
2026-04-25 12:15 48.95087 134.49887 35005 ft 478 kts 171°
2026-04-25 12:16 48.88529 134.51479 35005 ft 478 kts 171°
2026-04-25 12:16 48.81965 134.53056 35005 ft 478 kts 171°
2026-04-25 12:17 48.75391 134.54628 35005 ft 478 kts 171°
2026-04-25 12:17 48.69884 134.55937 35005 ft 478 kts 171°
2026-04-25 12:18 48.63306 134.57498 35005 ft 478 kts 171°
2026-04-25 12:18 48.56738 134.59050 35005 ft 478 kts 171°
2026-04-25 12:19 48.46892 134.61368 35005 ft 478 kts 171°
2026-04-25 12:20 48.40303 134.62915 35005 ft 478 kts 171°
2026-04-25 12:20 48.33765 134.64444 35005 ft 478 kts 171°
2026-04-25 12:21 48.27181 134.65982 35005 ft 477 kts 172°
2026-04-25 12:21 48.20631 134.67506 35005 ft 477 kts 172°
2026-04-25 12:22 48.14098 134.69023 35005 ft 477 kts 172°
2026-04-25 12:22 48.07517 134.70548 35005 ft 477 kts 172°
2026-04-25 12:23 48.00960 134.72063 35005 ft 477 kts 172°
2026-04-25 12:23 47.94387 134.73576 35005 ft 477 kts 172°
2026-04-25 12:24 47.87853 134.75078 35005 ft 477 kts 172°
2026-04-25 12:24 47.81294 134.76582 35005 ft 477 kts 172°
2026-04-25 12:25 47.74716 134.78085 35005 ft 477 kts 172°
2026-04-25 12:25 47.68173 134.79578 35005 ft 477 kts 172°
2026-04-25 12:26 47.61585 134.81078 35005 ft 477 kts 172°
2026-04-25 12:26 47.55028 134.82565 35005 ft 477 kts 172°
2026-04-25 12:27 47.48439 134.84056 35005 ft 477 kts 172°
2026-04-25 12:27 47.41896 134.85533 35005 ft 477 kts 172°
2026-04-25 12:28 47.35338 134.87010 35005 ft 477 kts 172°
2026-04-25 12:28 47.28764 134.88487 35005 ft 477 kts 172°
2026-04-25 12:29 47.22218 134.89954 35005 ft 477 kts 172°
2026-04-25 12:29 47.15682 134.91414 35005 ft 477 kts 172°
2026-04-25 12:30 47.09117 134.92877 35005 ft 477 kts 172°
2026-04-25 12:30 47.02555 134.94338 35005 ft 477 kts 172°
2026-04-25 12:31 46.96005 134.95790 35005 ft 477 kts 172°
2026-04-25 12:31 46.89434 134.97244 35005 ft 477 kts 172°
2026-04-25 12:32 46.82889 134.98576 35011 ft 477 kts 177°
2026-04-25 12:32 46.76276 134.98128 35007 ft 477 kts 185°
2026-04-25 12:33 46.69670 134.97241 35005 ft 477 kts 186°
2026-04-25 12:33 46.63067 134.96350 35005 ft 477 kts 186°
2026-04-25 12:34 46.56493 134.95462 35005 ft 477 kts 186°
2026-04-25 12:34 46.49871 134.94568 35005 ft 477 kts 186°
2026-04-25 12:35 46.43282 134.93680 35005 ft 477 kts 186°
2026-04-25 12:35 46.36695 134.92793 35005 ft 477 kts 186°
2026-04-25 12:36 46.31050 134.92036 35005 ft 477 kts 186°
2026-04-25 12:36 46.24433 134.91150 35005 ft 477 kts 186°
2026-04-25 12:37 46.17839 134.90269 35005 ft 477 kts 186°
2026-04-25 12:37 46.11236 134.89389 35005 ft 477 kts 186°
2026-04-25 12:38 46.04626 134.88510 35005 ft 476 kts 186°
2026-04-25 12:38 45.98036 134.87636 35005 ft 476 kts 186°
2026-04-25 12:39 45.91459 134.86372 35015 ft 476 kts 195°
2026-04-25 12:39 45.85698 134.82944 35015 ft 476 kts 209°
2026-04-25 12:40 45.79834 134.78242 35005 ft 476 kts 210°
2026-04-25 12:40 45.74365 134.73834 35005 ft 476 kts 210°
2026-04-25 12:41 45.68602 134.69196 35005 ft 476 kts 210°
2026-04-25 12:41 45.62828 134.64555 35005 ft 476 kts 210°
2026-04-25 12:42 45.57087 134.59952 35005 ft 476 kts 210°
2026-04-25 12:42 45.51301 134.55321 35005 ft 476 kts 210°
2026-04-25 12:43 45.45524 134.50708 35005 ft 476 kts 210°
2026-04-25 12:43 45.36846 134.43799 35005 ft 476 kts 210°
2026-04-25 12:44 45.31092 134.39230 35005 ft 476 kts 210°
2026-04-25 12:45 45.22406 134.32321 35004 ft 477 kts 209°
2026-04-25 12:45 45.13728 134.25494 35005 ft 476 kts 209°
2026-04-25 12:46 45.07930 134.20943 35005 ft 476 kts 209°
2026-04-25 12:46 45.02688 134.16834 35005 ft 476 kts 209°
2026-04-25 12:47 44.96905 134.12308 35005 ft 476 kts 209°
2026-04-25 12:47 44.91087 134.07764 35005 ft 476 kts 209°
2026-04-25 12:48 44.85309 134.03261 35005 ft 476 kts 209°
2026-04-25 12:48 44.79666 133.98766 35007 ft 476 kts 211°
2026-04-25 12:49 44.73931 133.94047 35005 ft 476 kts 211°
2026-04-25 12:49 44.68208 133.89360 35005 ft 476 kts 211°
2026-04-25 12:50 44.62521 133.84720 35005 ft 476 kts 211°
2026-04-25 12:50 44.56792 133.80058 35005 ft 476 kts 211°
2026-04-25 12:51 44.51067 133.75412 35005 ft 476 kts 211°
2026-04-25 12:51 44.45443 133.70859 35005 ft 476 kts 211°
2026-04-25 12:52 44.39714 133.66232 35005 ft 476 kts 211°
2026-04-25 12:52 44.33967 133.61603 35002 ft 471 kts 211°
2026-04-25 12:53 44.31175 133.59357 34673 ft 463 kts 211°
2026-04-25 12:53 44.28394 133.57123 33951 ft 469 kts 211°
2026-04-25 12:53 44.25528 133.54823 32830 ft 478 kts 211°
2026-04-25 12:53 44.22652 133.52516 31663 ft 484 kts 211°
2026-04-25 12:54 44.19741 133.50185 30730 ft 484 kts 211°
2026-04-25 12:54 44.16824 133.47852 30091 ft 479 kts 211°
2026-04-25 12:54 44.13952 133.45557 29578 ft 472 kts 211°
2026-04-25 12:54 44.11126 133.43301 29016 ft 467 kts 211°
2026-04-25 12:55 44.08337 133.41078 28423 ft 463 kts 211°
2026-04-25 12:55 44.07417 133.40344 28224 ft 462 kts 211°
2026-04-25 12:55 44.02800 133.36671 27229 ft 455 kts 211°
2026-04-25 12:55 44.00075 133.34508 26642 ft 451 kts 210°
2026-04-25 12:56 43.97372 133.32364 26055 ft 447 kts 210°
2026-04-25 12:56 43.94662 133.30215 25459 ft 443 kts 210°
2026-04-25 12:56 43.92023 133.28124 24872 ft 439 kts 211°
2026-04-25 12:56 43.89525 133.25729 24159 ft 439 kts 220°
2026-04-25 12:57 43.87365 133.22761 23487 ft 436 kts 230°
2026-04-25 12:57 43.85585 133.19418 22891 ft 432 kts 236°
2026-04-25 12:57 43.83928 133.15968 22314 ft 428 kts 238°
2026-04-25 12:57 43.82358 133.12514 21738 ft 423 kts 238°
2026-04-25 12:58 43.80809 133.09096 21164 ft 419 kts 238°
2026-04-25 12:58 43.79274 133.05714 20599 ft 415 kts 238°
2026-04-25 12:58 43.78102 133.03134 20168 ft 412 kts 238°
2026-04-25 12:58 43.76590 132.99812 19599 ft 408 kts 238°
2026-04-25 12:59 43.75095 132.96532 19040 ft 404 kts 238°
2026-04-25 12:59 43.73621 132.93303 18489 ft 400 kts 238°
2026-04-25 12:59 43.72151 132.90085 17929 ft 396 kts 238°
2026-04-25 12:59 43.70674 132.86858 17367 ft 392 kts 238°
2026-04-25 13:00 43.69223 132.83693 16814 ft 389 kts 238°
2026-04-25 13:00 43.68756 132.82675 16633 ft 387 kts 238°
2026-04-25 13:00 43.66368 132.77478 15709 ft 382 kts 238°
2026-04-25 13:00 43.64959 132.74419 15164 ft 378 kts 238°
2026-04-25 13:01 43.63557 132.71381 14615 ft 375 kts 238°
2026-04-25 13:01 43.62167 132.68375 14068 ft 372 kts 238°
2026-04-25 13:01 43.60784 132.65392 13529 ft 369 kts 238°
2026-04-25 13:01 43.59416 132.62445 12988 ft 366 kts 238°
2026-04-25 13:02 43.58046 132.59506 12446 ft 363 kts 238°
2026-04-25 13:02 43.56673 132.56595 11899 ft 360 kts 236°
2026-04-25 13:02 43.55042 132.54054 11435 ft 354 kts 221°
2026-04-25 13:02 43.53048 132.52206 11273 ft 340 kts 207°
2026-04-25 13:03 43.50767 132.51071 11243 ft 357 kts 193°
2026-04-25 13:03 43.48282 132.50713 11194 ft 359 kts 180°
2026-04-25 13:03 43.45862 132.51144 10820 ft 342 kts 165°
2026-04-25 13:03 43.43717 132.52287 10494 ft 323 kts 152°
2026-04-25 13:04 43.41899 132.53984 10181 ft 306 kts 139°
2026-04-25 13:04 43.40491 132.56024 9947 ft 292 kts 128°
2026-04-25 13:04 43.39415 132.58397 9661 ft 289 kts 116°
2026-04-25 13:04 43.38723 132.60941 9374 ft 286 kts 105°
2026-04-25 13:05 43.38401 132.63640 9084 ft 285 kts 94°
2026-04-25 13:05 43.38480 132.66322 8783 ft 283 kts 78°
2026-04-25 13:05 43.39272 132.68753 8469 ft 282 kts 52°
2026-04-25 13:05 43.40762 132.70468 8153 ft 281 kts 26°
2026-04-25 13:06 43.42626 132.71103 7840 ft 279 kts
2026-04-25 13:06 43.44498 132.70520 7676 ft 269 kts 333°
2026-04-25 13:06 43.45910 132.68979 7631 ft 254 kts 309°
2026-04-25 13:06 43.46701 132.66928 7591 ft 240 kts 286°
2026-04-25 13:07 43.47085 132.64764 7579 ft 225 kts 283°
2026-04-25 13:07 43.47361 132.62683 7328 ft 224 kts 276°
2026-04-25 13:07 43.47508 132.60431 7046 ft 252 kts 275°
2026-04-25 13:07 43.47661 132.57925 7004 ft 264 kts 275°
2026-04-25 13:08 43.47812 132.55421 7006 ft 265 kts 275°
2026-04-25 13:08 43.47961 132.52928 6985 ft 254 kts 275°
2026-04-25 13:08 43.48103 132.50525 6577 ft 257 kts 275°
2026-04-25 13:08 43.48247 132.48062 6126 ft 259 kts 275°
2026-04-25 13:09 43.48387 132.45627 5795 ft 252 kts 275°
2026-04-25 13:09 43.48519 132.43292 5548 ft 239 kts 275°
2026-04-25 13:09 43.48643 132.41051 5292 ft 229 kts 275°
2026-04-25 13:09 43.48743 132.38916 5023 ft 221 kts 269°
2026-04-25 13:10 43.48426 132.36887 4740 ft 213 kts 250°
2026-04-25 13:10 43.47825 132.35092 4434 ft 203 kts 243°
2026-04-25 13:10 43.47150 132.33385 3983 ft 202 kts 241°
2026-04-25 13:10 43.46520 132.31831 3528 ft 203 kts 241°
2026-04-25 13:11 43.45834 132.30145 3094 ft 196 kts 241°
2026-04-25 13:11 43.45210 132.28607 2882 ft 176 kts 241°
2026-04-25 13:11 43.44627 132.27165 2658 ft 166 kts 241°
2026-04-25 13:11 43.44086 132.25825 2384 ft 156 kts 241°
2026-04-25 13:12 43.43578 132.24567 2047 ft 148 kts 241°
2026-04-25 13:12 43.43085 132.23346 1700 ft 146 kts 241°
2026-04-25 13:12 43.42596 132.22133 1283 ft 145 kts 241°
2026-04-25 13:12 43.42435 132.21738 1152 ft 143 kts 241°
2026-04-25 13:13 43.41645 132.19739 653 ft 143 kts 240°
2026-04-25 13:13 43.41142 132.18585 421 ft 140 kts 240°
2026-04-25 13:13 43.40666 132.17397 225 ft 140 kts 241°
2026-04-25 13:13 43.40202 132.16228 63 ft 135 kts 242°
2026-04-25 13:14 43.39774 132.15161 59 ft 112 kts 241°
2026-04-25 13:14 43.39465 132.14398 59 ft 50 kts 241°
2026-04-25 13:14 43.39398 132.14230 59 ft 0 kts 237°
2026-04-25 13:14 43.39389 132.14215 59 ft 4 kts 229°
2026-04-25 13:15 43.39346 132.14191 59 ft 7 kts 182°
2026-04-25 13:15 43.39304 132.14201 59 ft 0 kts 157°
2026-04-25 13:15 43.39302 132.14203 59 ft 0 kts 157°
2026-04-25 13:16 43.39301 132.14203 59 ft 0 kts 157°
2026-04-25 13:16 43.39300 132.14203 59 ft 0 kts 157°
2026-04-25 13:16 43.39299 132.14204 59 ft 0 kts 157°
2026-04-25 13:17 43.39290 132.14210 59 ft 2 kts 152°
2026-04-25 13:17 43.39272 132.14224 59 ft 3 kts 151°
2026-04-25 13:17 43.39241 132.14246 59 ft 6 kts 153°
2026-04-25 13:17 43.39209 132.14285 59 ft 6 kts 117°
2026-04-25 13:18 43.39209 132.14349 59 ft 8 kts 71°
2026-04-25 13:18 43.39237 132.14426 59 ft 9 kts 60°
2026-04-25 13:18 43.39269 132.14505 59 ft 9 kts 63°
2026-04-25 13:18 43.39301 132.14586 59 ft 9 kts 60°
2026-04-25 13:19 43.39335 132.14670 59 ft 10 kts 60°
2026-04-25 13:19 43.39370 132.14755 59 ft 10 kts 60°
2026-04-25 13:19 43.39399 132.14827 59 ft 10 kts 60°
2026-04-25 13:19 43.39411 132.14857 59 ft 10 kts 60°
2026-04-25 13:20 43.39473 132.15007 59 ft 11 kts 61°
2026-04-25 13:20 43.39506 132.15093 59 ft 15 kts 61°
2026-04-25 13:20 43.39567 132.15243 59 ft 20 kts 61°
2026-04-25 13:20 43.39618 132.15370 59 ft 12 kts 60°
2026-04-25 13:21 43.39661 132.15474 59 ft 12 kts 60°
2026-04-25 13:21 43.39703 132.15579 59 ft 12 kts 61°
2026-04-25 13:21 43.39745 132.15683 59 ft 12 kts 62°
2026-04-25 13:21 43.39786 132.15788 59 ft 12 kts 61°
2026-04-25 13:22 43.39828 132.15891 59 ft 12 kts 62°
2026-04-25 13:22 43.39869 132.15993 59 ft 12 kts 61°
2026-04-25 13:22 43.39888 132.16066 59 ft 7 kts 93°
2026-04-25 13:23 43.39852 132.16132 59 ft 2 kts 154°
2026-04-25 13:23 43.39811 132.16165 59 ft 10 kts 147°
2026-04-25 13:23 43.39761 132.16225 59 ft 8 kts 116°
2026-04-25 13:23 43.39767 132.16301 59 ft 7 kts 57°
2026-04-25 13:24 43.39787 132.16345 59 ft 0 kts 59°
2026-04-25 13:27 43.39786 132.16342 59 ft 1 kts 61°
2026-04-25 13:27 43.39782 132.16325 59 ft 1 kts 99°
2026-04-25 13:27 43.39788 132.16307 59 ft 2 kts 133°
2026-04-25 13:28 43.39799 132.16296 59 ft 2 kts 155°
2026-04-25 13:28 43.39804 132.16295 59 ft 2 kts 155°
2026-04-25 13:28 43.39823 132.16281 59 ft 2 kts 150°
2026-04-25 13:28 43.39827 132.16278 59 ft 1 kts 150°
2026-04-25 13:29 43.39804 132.16307 59 ft 7 kts 135°
2026-04-25 13:29 43.39792 132.16321 59 ft 0 kts 137°
2026-04-25 13:31 43.39786 132.16332 59 ft 3 kts 126°
2026-04-25 13:31 43.39762 132.16373 59 ft 6 kts 137°
2026-04-25 13:31 43.39732 132.16403 59 ft 0 kts 148°
2026-04-25 13:31 43.39726 132.16409 59 ft 1 kts 150°
2026-04-25 13:32 43.39711 132.16420 59 ft 3 kts 150°
2026-04-25 13:32 43.39710 132.16422 59 ft 0 kts 150°